[[{"header":{"parameterUnit":"m.s-1","parameterCategory":1,"la1":30.2991,"la2":30.254,"lo1":-89.0895,"lo2":-89.0444,"dy":0.0017,"dx":0.0017,"nx":28,"ny":28,"refTime":"2025-01-19T03:00:00:Z","depth":0,"parameterNumber":2,"parameterNumberName":"U-component_of_WINDS"},"data":[0,0,0,0,0,0,0,0,0,0,0,0,0,0,0,0,0,0,0,0,0,0,0,0,0,0,0,0,0,0,0,0,0,0,0,0,0,0,0,0,0,0,0,0,0,0,0,0,0,0,0,0,0,0,0,0,0,0,4.4342,4.4343,0,4.4403,4.4403,4.4404,4.4359,4.4357,4.4355,4.4353,4.4414,4.4417,4.4421,0,0,0,0,0,0,0,0,0,0,0,0,0,4.419,4.4193,4.4342,4.4343,4.4344,4.4402,4.4403,4.4404,4.4359,4.4357,4.4354,4.4352,4.4413,4.4417,4.4421,0,0,0,0,0,0,0,0,0,0,0,0,0,4.4254,4.4194,4.4342,4.4328,4.4328,4.4402,4.4403,4.4404,4.4359,4.4357,4.4354,4.4351,4.4411,4.4416,4.4421,4.4513,0,0,4.4437,4.444,0,0,0,0,0,0,0,0,4.425,4.4259,4.433,4.4329,4.4329,4.437,4.4372,4.4441,4.436,4.4347,4.4353,4.4349,4.4402,4.4407,4.4425,4.4515,4.4518,4.4438,4.4441,4.4443,4.4445,0,0,0,0,0,0,0,4.4246,4.4256,4.4366,4.4331,4.433,4.432,4.4326,4.4385,4.439,4.4348,4.4345,4.4353,4.4401,4.442,4.4426,4.4519,4.4438,4.4442,4.4445,4.4447,4.469,4.4693,0,0,0,0,0,0,4.4242,4.4253,4.4364,4.4368,4.4281,4.4325,4.4331,4.436,4.439,4.4391,4.4355,4.4351,4.4413,4.442,4.4428,4.4539,4.4443,4.4448,4.4451,4.4687,4.4691,4.4695,0,0,0,0,0,0,4.4239,4.4253,4.4362,4.431,4.4323,4.4331,4.4363,4.4363,4.4382,4.4395,4.4396,4.4374,4.4411,4.4421,4.4493,4.454,4.445,4.4455,4.4683,4.4688,4.4693,4.476,0,0,0,0,0,0,4.4235,4.4252,4.4286,4.4311,4.4326,4.4425,4.4366,4.4366,4.4391,4.4385,4.4413,4.4414,4.4409,4.4485,4.4498,4.4546,4.4459,4.4679,4.4685,4.4691,4.4753,4.4766,4.4778,0,0,0,0,0,4.423,4.4302,4.4288,4.4302,4.4369,4.4428,4.4436,4.4429,4.4395,4.443,4.4439,4.4414,4.4533,4.4493,4.4507,4.4557,4.4676,4.4683,4.4691,4.4748,4.4764,4.4777,0,0,0,0,0,0,4.4281,4.4304,4.429,4.4371,4.4398,4.442,4.4463,4.4446,4.4482,4.4475,4.4465,4.4471,4.4547,4.4559,4.4514,4.4648,4.4599,4.461,4.4638,4.4653,4.4665,4.4661,4.4463,0,0,0,0,0,4.4302,4.4348,4.4366,4.4437,4.4451,4.4455,4.4481,4.4473,4.45,4.4511,4.4525,4.4552,4.4596,4.4625,4.4666,4.4755,4.4761,4.4797,4.4809,4.4819,4.4828,4.4878,4.4895,4.4719,4.4719,4.4719,0,0,4.4346,4.4364,4.4394,4.4448,4.4467,4.4516,4.4465,4.4518,4.4554,4.4519,4.4588,4.46,4.463,4.4711,4.4748,4.4723,4.4878,4.4828,4.4836,4.484,4.4888,4.4905,4.4919,4.4724,4.4723,4.4723,0,0,4.445,4.4468,4.453,4.4552,4.4583,4.4586,4.4601,4.4626,4.4633,4.4703,4.4678,4.4721,4.4796,4.482,4.4841,4.4958,4.4937,4.4972,4.5035,4.5085,4.5098,4.5111,4.5154,4.517,4.4981,4.4981,4.4981,0,4.4501,4.4573,4.4564,4.462,4.4646,4.4617,4.4681,4.4702,4.4745,4.4763,4.4736,4.4832,4.4849,4.4937,4.4966,4.4984,4.5002,4.4968,4.5097,4.5109,4.5121,4.5162,4.5178,4.4985,4.4985,4.4985,4.4984,0,4.4634,4.4685,4.4731,4.4775,4.4805,4.4864,4.4866,4.4898,4.4889,4.4895,4.4968,4.4989,4.5035,4.5055,4.5045,4.5142,4.5127,4.5098,4.5049,4.5142,4.5181,4.5196,4.4991,4.499,4.4989,4.4988,0,0,4.4771,4.4811,4.4828,4.4849,4.4883,4.4922,4.4981,4.5027,4.5055,4.5087,4.5137,4.5203,4.5178,4.5203,4.5196,4.5239,4.5333,4.5206,4.5206,4.523,4.5444,4.5465,4.5484,4.5319,4.5322,4.5325,4.5442,0,4.4878,4.4981,4.4977,4.5074,4.5122,4.5097,4.5149,4.5176,4.5184,4.5226,4.5235,4.5283,4.5245,4.526,4.5302,4.5313,4.5376,4.5304,4.5367,4.5369,4.5361,4.5504,4.5526,4.5635,4.5457,4.5459,4.5461,0,4.5017,4.5054,4.5156,4.5185,4.5205,4.5252,4.5295,4.5335,4.5366,4.5369,4.5399,4.5386,4.5447,4.5396,4.5481,4.5433,4.5459,4.5468,4.5472,4.5478,4.5421,4.5514,4.5669,4.5686,4.5484,4.5482,4.5481,0,4.5108,4.5184,4.5256,4.5274,4.5309,4.5343,4.5359,4.5387,4.5416,4.5454,4.5473,4.5517,4.5542,4.5577,4.5577,4.5539,4.5664,4.5612,4.5669,4.5669,4.5696,4.5695,4.5859,4.5712,4.5711,4.5711,4.5711,0,4.5229,4.5293,4.5298,4.5342,4.5413,4.5408,4.5479,4.5492,4.5518,4.5565,4.5546,4.5591,4.5588,4.5633,4.5634,4.5706,4.5716,4.5721,4.5721,4.5723,4.5723,4.574,4.5733,4.5715,4.5715,4.5714,4.5713,0,4.5343,4.5349,4.5426,4.5454,4.5463,4.5514,4.5538,4.5581,4.5588,4.5648,4.5662,4.5674,4.5727,4.5731,4.5791,4.5792,4.5879,4.587,4.5869,4.5868,4.5925,4.592,4.6106,4.6131,4.5967,4.5969,4.597,0,4.542,4.5469,4.5503,4.5534,4.5552,4.5601,4.5631,4.5629,4.5661,4.5702,4.574,4.5791,4.5832,4.5918,4.5932,4.5979,4.5972,4.6034,4.5979,4.5981,4.5974,4.5972,4.5978,4.6045,4.6046,4.6048,4.6049,0,4.5557,4.5558,4.5602,4.5648,4.5685,4.572,4.5754,4.578,4.5782,4.582,4.5874,4.5906,4.5969,4.6021,4.6068,4.6085,4.6069,4.6067,4.6083,4.6086,4.6084,4.6088,4.5899,4.6062,4.6061,4.606,4.6059,4.6059,4.5656,4.5699,4.573,4.5781,4.5806,4.5839,4.5881,4.5895,4.594,4.5992,4.5988,4.6049,4.6081,4.6142,4.6164,4.6212,4.6191,4.6213,4.6219,4.6225,4.6232,4.6076,4.622,4.622,4.6219,4.6219,4.6219,0,4.5792,4.5812,4.5859,4.5907,4.5947,4.5929,4.5966,4.6001,4.6055,4.6086,4.6128,4.6192,4.6243,4.6262,4.6312,4.6347,4.6341,4.636,4.6358,4.6363,4.6247,4.6229,4.6365,4.6365,4.6365,4.6365,4.6365,4.6365,4.5868,4.5941,4.5947,4.6033,4.6052,4.6112,4.6135,4.6166,4.6191,4.6264,4.6306,4.6319,4.6346,4.6399,4.6445,4.645,4.6469,4.6493,4.6494,4.6385,4.637,4.6356,4.634,4.6497,4.6497,4.6606,4.6607,4.6608]},{"header":{"parameterUnit":"m.s-1","parameterCategory":1,"la1":30.2991,"la2":30.254,"lo1":-89.0895,"lo2":-89.0444,"dy":0.0017,"dx":0.0017,"nx":28,"ny":28,"refTime":"2025-01-19T03:00:00:Z","depth":0,"parameterNumber":3,"parameterNumberName":"V-component_of_WINDS"},"data":[0,0,0,0,0,0,0,0,0,0,0,0,0,0,0,0,0,0,0,0,0,0,0,0,0,0,0,0,0,0,0,0,0,0,0,0,0,0,0,0,0,0,0,0,0,0,0,0,0,0,0,0,0,0,0,0,0,0,-7.3243,-7.3245,0,-7.34,-7.3402,-7.3403,-7.3381,-7.3378,-7.3376,-7.3373,-7.3528,-7.3535,-7.3541,0,0,0,0,0,0,0,0,0,0,0,0,0,-7.2921,-7.2927,-7.3243,-7.3245,-7.3247,-7.34,-7.3402,-7.3404,-7.3381,-7.3378,-7.3375,-7.3372,-7.3526,-7.3534,-7.3542,0,0,0,0,0,0,0,0,0,0,0,0,0,-7.3067,-7.2929,-7.3243,-7.3254,-7.3257,-7.3399,-7.3402,-7.3404,-7.3382,-7.3378,-7.3374,-7.337,-7.3524,-7.3533,-7.3543,-7.3682,0,0,-7.3573,-7.3577,0,0,0,0,0,0,0,0,-7.3059,-7.3079,-7.3251,-7.3254,-7.3257,-7.3367,-7.3345,-7.3497,-7.3383,-7.3334,-7.3373,-7.3368,-7.3477,-7.3491,-7.3529,-7.3689,-7.3696,-7.3574,-7.358,-7.3584,-7.3587,0,0,0,0,0,0,0,-7.3049,-7.3072,-7.3305,-7.3253,-7.3257,-7.325,-7.3267,-7.3374,-7.3426,-7.3338,-7.3337,-7.3356,-7.3478,-7.3519,-7.3532,-7.3698,-7.3574,-7.3582,-7.3588,-7.3592,-7.3983,-7.3988,0,0,0,0,0,0,-7.3036,-7.3064,-7.33,-7.331,-7.3146,-7.3259,-7.3278,-7.3335,-7.3425,-7.3434,-7.3359,-7.3354,-7.3504,-7.3521,-7.3537,-7.3708,-7.3584,-7.3593,-7.3599,-7.3979,-7.3984,-7.3989,0,0,0,0,0,0,-7.3029,-7.3057,-7.3294,-7.3187,-7.3216,-7.3269,-7.3334,-7.3341,-7.3382,-7.3441,-7.3449,-7.3392,-7.3502,-7.3524,-7.3647,-7.3713,-7.3598,-7.3607,-7.3974,-7.3981,-7.3987,-7.405,0,0,0,0,0,0,-7.302,-7.3055,-7.3109,-7.3188,-7.3222,-7.3402,-7.3338,-7.3346,-7.3399,-7.3394,-7.3473,-7.3483,-7.35,-7.3633,-7.3657,-7.3725,-7.3614,-7.3968,-7.3977,-7.3985,-7.4042,-7.4058,-7.4072,0,0,0,0,0,-7.3009,-7.3119,-7.3112,-7.3141,-7.3291,-7.3406,-7.3425,-7.3445,-7.3405,-7.3459,-7.3498,-7.348,-7.3702,-7.3646,-7.3673,-7.3744,-7.3964,-7.3974,-7.3984,-7.4036,-7.4055,-7.4071,0,0,0,0,0,0,-7.3044,-7.313,-7.3123,-7.3262,-7.3327,-7.3402,-7.3471,-7.3464,-7.3541,-7.3533,-7.3553,-7.3571,-7.3696,-7.3732,-7.3668,-7.3885,-7.3827,-7.3843,-7.3857,-7.3876,-7.389,-7.3879,-7.3623,0,0,0,0,0,-7.3069,-7.3157,-7.3225,-7.3342,-7.3375,-7.3418,-7.3468,-7.3479,-7.3546,-7.3573,-7.362,-7.3685,-7.3769,-7.3824,-7.3905,-7.4047,-7.4064,-7.411,-7.4124,-7.4136,-7.415,-7.423,-7.4251,-7.4022,-7.4022,-7.4022,0,0,-7.312,-7.3177,-7.3231,-7.3351,-7.3402,-7.3492,-7.3441,-7.3537,-7.3604,-7.3587,-7.3708,-7.3744,-7.3818,-7.3952,-7.4013,-7.3986,-7.4217,-7.4149,-7.4158,-7.4166,-7.4242,-7.4264,-7.4283,-7.4029,-7.4028,-7.4027,0,0,-7.3258,-7.331,-7.3414,-7.3468,-7.3547,-7.3575,-7.36,-7.3677,-7.3702,-7.3824,-7.3813,-7.3892,-7.4036,-7.409,-7.4136,-7.4298,-7.4285,-7.4323,-7.44,-7.4477,-7.4496,-7.4512,-7.4571,-7.4592,-7.4337,-7.4337,-7.4337,0,-7.3311,-7.3447,-7.3468,-7.3567,-7.362,-7.3611,-7.3716,-7.3766,-7.3868,-7.3904,-7.3873,-7.4056,-7.4105,-7.4252,-7.4292,-7.4329,-7.4358,-7.4315,-7.4492,-7.4508,-7.4523,-7.458,-7.4602,-7.4341,-7.4341,-7.434,-7.434,0,-7.3509,-7.3603,-7.3677,-7.3778,-7.384,-7.3941,-7.3977,-7.4036,-7.4041,-7.4072,-7.4197,-7.4256,-7.4349,-7.4385,-7.4389,-7.4534,-7.4515,-7.4487,-7.443,-7.4549,-7.4603,-7.4624,-7.4347,-7.4346,-7.4344,-7.4343,0,0,-7.3673,-7.3787,-7.3814,-7.386,-7.3949,-7.4021,-7.4122,-7.4216,-7.4268,-7.4338,-7.4423,-7.4547,-7.4523,-7.4576,-7.4586,-7.4654,-7.4781,-7.4619,-7.4621,-7.4648,-7.4945,-7.4967,-7.4991,-7.4773,-7.4777,-7.478,-7.494,0,-7.3822,-7.4003,-7.4025,-7.4186,-7.4274,-7.4268,-7.4356,-7.4419,-7.4451,-7.453,-7.4564,-7.4653,-7.4613,-7.4645,-7.4712,-7.4751,-7.4841,-7.474,-7.4852,-7.4856,-7.4836,-7.5019,-7.5041,-7.5189,-7.496,-7.4964,-7.4967,0,-7.4019,-7.4098,-7.4268,-7.4347,-7.4384,-7.4463,-7.4552,-7.4628,-7.4699,-7.4718,-7.4778,-7.4781,-7.4885,-7.4823,-7.4967,-7.4898,-7.4945,-7.4971,-7.4977,-7.4989,-7.4919,-7.5037,-7.5236,-7.5259,-7.4999,-7.4997,-7.4994,0,-7.4125,-7.4273,-7.4395,-7.4434,-7.4528,-7.4585,-7.4626,-7.4694,-7.475,-7.4827,-7.4863,-7.495,-7.4998,-7.5065,-7.5091,-7.5044,-7.5235,-7.5174,-7.5253,-7.5253,-7.5294,-7.5291,-7.5505,-7.5322,-7.5322,-7.5322,-7.5321,0,-7.4289,-7.4393,-7.4444,-7.4519,-7.4636,-7.466,-7.4775,-7.4814,-7.4875,-7.4957,-7.4955,-7.5032,-7.5061,-7.5142,-7.5163,-7.528,-7.5301,-7.5318,-7.5323,-7.532,-7.5318,-7.5352,-7.5342,-7.5327,-7.5326,-7.5325,-7.5324,0,-7.4426,-7.4464,-7.4597,-7.4676,-7.4698,-7.4781,-7.4849,-7.4921,-7.4953,-7.5056,-7.5082,-7.5132,-7.5227,-7.526,-7.5375,-7.5389,-7.5525,-7.552,-7.5502,-7.5503,-7.5581,-7.5574,-7.5825,-7.586,-7.5653,-7.5655,-7.5656,0,-7.4529,-7.461,-7.4699,-7.4755,-7.4799,-7.4889,-7.4947,-7.4974,-7.5034,-7.5123,-7.5185,-7.528,-7.5358,-7.5511,-7.5557,-7.5645,-7.5643,-7.5725,-7.5656,-7.5651,-7.5646,-7.5642,-7.565,-7.5738,-7.574,-7.5742,-7.5743,0,-7.4709,-7.4724,-7.4808,-7.49,-7.497,-7.5043,-7.5113,-7.5158,-7.5196,-7.5263,-7.5363,-7.5424,-7.5543,-7.5638,-7.5729,-7.577,-7.5764,-7.5765,-7.5788,-7.5786,-7.5773,-7.5783,-7.5539,-7.5759,-7.5757,-7.5756,-7.5755,-7.5755,-7.4833,-7.4906,-7.4981,-7.5075,-7.5131,-7.5198,-7.5271,-7.5313,-7.5397,-7.5498,-7.5508,-7.5615,-7.5686,-7.5808,-7.5854,-7.5937,-7.5914,-7.5947,-7.5956,-7.5964,-7.5971,-7.5759,-7.5953,-7.5953,-7.5953,-7.5952,-7.5952,0,-7.5014,-7.5062,-7.5149,-7.5249,-7.5324,-7.5313,-7.5391,-7.5454,-7.5549,-7.5616,-7.5694,-7.5809,-7.5902,-7.5956,-7.6048,-7.6105,-7.6105,-7.6129,-7.6125,-7.6135,-7.5985,-7.5957,-7.6128,-7.6128,-7.6128,-7.6128,-7.6128,-7.6128,-7.5117,-7.524,-7.5264,-7.5415,-7.5462,-7.5569,-7.5615,-7.5677,-7.5731,-7.586,-7.5938,-7.5974,-7.6036,-7.6134,-7.6218,-7.6232,-7.6266,-7.6293,-7.6304,-7.6164,-7.6145,-7.6128,-7.6102,-7.63,-7.63,-7.6447,-7.6449,-7.645]}]]